Terminal Aerodrome Forecast
Issued by NWS

Home | Current Version | Previous Version | Text Only | Print | Product List | Glossary On
Versions: 1 2 3 4 5 6 7 8 9 10 11 12 13 14 15 16 17 18 19 20 21 22 23 24 25 26 27 28 29 30 31 32 33 34 35 36 37 38 39 40 41 42 43 44 45 46 47 48 49 50
000
FTUS43 KDTX 051434 AAB
TAFYIP
TAF AMD
KYIP 051434Z 0515/0612 21006KT P6SM SCT035 BKN150
      TEMPO 0515/0517 18015KT 3SM -TSRA OVC035CB
     FM051900 23008KT P6SM BKN040 BKN200
     FM060000 VRB04KT P6SM SCT050 BKN200
     FM060400 VRB02KT 4SM BR BKN250=

USA.gov is the U.S. government's official web portal to all federal, state and local government web resources and services.